����������;��������(kVARh)
2016-07-11 00:00;0,5
2016-07-11 00:15;4,55
2016-07-11 00:30;1,95
2016-07-11 00:45;1,1
2016-07-11 01:00;2
2016-07-11 01:15;0,05
2016-07-11 01:30;0
2016-07-11 01:45;0,4
2016-07-11 02:00;2,15
2016-07-11 02:15;0
2016-07-11 02:30;0,75
2016-07-11 02:45;4
2016-07-11 03:00;1,45
2016-07-11 03:15;0,6
2016-07-11 03:30;2,1
2016-07-11 03:45;4,45
2016-07-11 04:00;8,5
2016-07-11 04:15;3,1
2016-07-11 04:30;1,9
2016-07-11 04:45;4,25
2016-07-11 05:00;5,6
2016-07-11 05:15;3,7
2016-07-11 05:30;2,5
2016-07-11 05:45;5,35
2016-07-11 06:00;5,8
2016-07-11 06:15;2,1
2016-07-11 06:30;3,2
2016-07-11 06:45;8,85
2016-07-11 07:00;11,15
2016-07-11 07:15;5,45
2016-07-11 07:30;3,4
2016-07-11 07:45;24,8
2016-07-11 08:00;19,65
2016-07-11 08:15;21,65
2016-07-11 08:30;19,5
2016-07-11 08:45;22,4
2016-07-11 09:00;20,9
2016-07-11 09:15;22,25
2016-07-11 09:30;30,9
2016-07-11 09:45;21,45
2016-07-11 10:00;32,75
2016-07-11 10:15;36,45
2016-07-11 10:30;33,6
2016-07-11 10:45;48,5
2016-07-11 11:00;62
2016-07-11 11:15;59,6
2016-07-11 11:30;66,7
2016-07-11 11:45;65
2016-07-11 12:00;70,8
2016-07-11 12:15;65,6
2016-07-11 12:30;65,5
2016-07-11 12:45;55,8
2016-07-11 13:00;54,55
2016-07-11 13:15;52
2016-07-11 13:30;51,95
2016-07-11 13:45;45,8
2016-07-11 14:00;50,3
2016-07-11 14:15;54,75
2016-07-11 14:30;47,95
2016-07-11 14:45;42,1
2016-07-11 15:00;55,85
2016-07-11 15:15;45,8
2016-07-11 15:30;45,75
2016-07-11 15:45;56
2016-07-11 16:00;44,9
2016-07-11 16:15;51,3
2016-07-11 16:30;51,3
2016-07-11 16:45;42,45
2016-07-11 17:00;34,8
2016-07-11 17:15;40,95
2016-07-11 17:30;41,3
2016-07-11 17:45;33,85
2016-07-11 18:00;29,95
2016-07-11 18:15;24,6
2016-07-11 18:30;20,45
2016-07-11 18:45;20,5
2016-07-11 19:00;18,05
2016-07-11 19:15;11,2
2016-07-11 19:30;13,55
2016-07-11 19:45;12
2016-07-11 20:00;10,65
2016-07-11 20:15;8,35
2016-07-11 20:30;7,5
2016-07-11 20:45;13
2016-07-11 21:00;12,55
2016-07-11 21:15;10,7
2016-07-11 21:30;10
2016-07-11 21:45;9,3
2016-07-11 22:00;7,75
2016-07-11 22:15;8,55
2016-07-11 22:30;6,4
2016-07-11 22:45;7,15
2016-07-11 23:00;8,65
2016-07-11 23:15;7,8
2016-07-11 23:30;8,4
2016-07-11 23:45;12,65
2016-07-12 00:00;8,85
2016-07-12 00:15;9
2016-07-12 00:30;12,25
2016-07-12 00:45;12,9
2016-07-12 01:00;4,1
2016-07-12 01:15;2,15
2016-07-12 01:30;4,9
2016-07-12 01:45;0,7
2016-07-12 02:00;2,2
2016-07-12 02:15;0,1
2016-07-12 02:30;0
2016-07-12 02:45;0
2016-07-12 03:00;0,3
2016-07-12 03:15;0
2016-07-12 03:30;0,3
2016-07-12 03:45;2,5
2016-07-12 04:00;3,1
2016-07-12 04:15;5
2016-07-12 04:30;3,4
2016-07-12 04:45;2,7
2016-07-12 05:00;2,1
2016-07-12 05:15;4,2
2016-07-12 05:30;3,35
2016-07-12 05:45;4,45
2016-07-12 06:00;4,6
2016-07-12 06:15;11
2016-07-12 06:30;9,05
2016-07-12 06:45;4,35
2016-07-12 07:00;6,5
2016-07-12 07:15;14,8
2016-07-12 07:30;13,6
2016-07-12 07:45;21,7
2016-07-12 08:00;26,5
2016-07-12 08:15;12,15
2016-07-12 08:30;19,05
2016-07-12 08:45;19
2016-07-12 09:00;21,9
2016-07-12 09:15;44,2
2016-07-12 09:30;33,3
2016-07-12 09:45;36,1
2016-07-12 10:00;44,5
2016-07-12 10:15;36,65
2016-07-12 10:30;44,05
2016-07-12 10:45;45,05
2016-07-12 11:00;39,8
2016-07-12 11:15;49,8
2016-07-12 11:30;42,85
2016-07-12 11:45;47,2
2016-07-12 12:00;52,6
2016-07-12 12:15;50,6
2016-07-12 12:30;46,1
2016-07-12 12:45;53,5
2016-07-12 13:00;49,6
2016-07-12 13:15;48,5
2016-07-12 13:30;47,7
2016-07-12 13:45;46,85
2016-07-12 14:00;49,7
2016-07-12 14:15;48,35
2016-07-12 14:30;50,95
2016-07-12 14:45;46,05
2016-07-12 15:00;50,9
2016-07-12 15:15;48,2
2016-07-12 15:30;44,35
2016-07-12 15:45;46
2016-07-12 16:00;40,85
2016-07-12 16:15;26,15
2016-07-12 16:30;34,45
2016-07-12 16:45;34,8
2016-07-12 17:00;31,25
2016-07-12 17:15;34,85
2016-07-12 17:30;34,7
2016-07-12 17:45;20,05
2016-07-12 18:00;25,45
2016-07-12 18:15;25,85
2016-07-12 18:30;20,75
2016-07-12 18:45;18,1
2016-07-12 19:00;19,1
2016-07-12 19:15;13,4
2016-07-12 19:30;7,95
2016-07-12 19:45;4,25
2016-07-12 20:00;1,45
2016-07-12 20:15;1,05
2016-07-12 20:30;1,2
2016-07-12 20:45;0,8
2016-07-12 21:00;0,2
2016-07-12 21:15;2,8
2016-07-12 21:30;6,05
2016-07-12 21:45;8,25
2016-07-12 22:00;9,65
2016-07-12 22:15;7,9
2016-07-12 22:30;7,55
2016-07-12 22:45;12,35
2016-07-12 23:00;15,85
2016-07-12 23:15;12,1
2016-07-12 23:30;8,7
2016-07-12 23:45;8,1
2016-07-13 00:00;0,05
2016-07-13 00:15;0,05
2016-07-13 00:30;0
2016-07-13 00:45;0,8
2016-07-13 01:00;1,3
2016-07-13 01:15;1,55
2016-07-13 01:30;0,25
2016-07-13 01:45;0
2016-07-13 02:00;0,1
2016-07-13 02:15;0,1
2016-07-13 02:30;0,5
2016-07-13 02:45;1,45
2016-07-13 03:00;1,1
2016-07-13 03:15;0,9
2016-07-13 03:30;0,55
2016-07-13 03:45;0,85
2016-07-13 04:00;0,9
2016-07-13 04:15;0,75
2016-07-13 04:30;0,15
2016-07-13 04:45;0,65
2016-07-13 05:00;0,65
2016-07-13 05:15;0,75
2016-07-13 05:30;0,1
2016-07-13 05:45;0,7
2016-07-13 06:00;3,45
2016-07-13 06:15;13,1
2016-07-13 06:30;13,95
2016-07-13 06:45;10,4
2016-07-13 07:00;12,8
2016-07-13 07:15;14,55
2016-07-13 07:30;19
2016-07-13 07:45;34,8
2016-07-13 08:00;26,95
2016-07-13 08:15;24,25
2016-07-13 08:30;26,1
2016-07-13 08:45;28,95
2016-07-13 09:00;31
2016-07-13 09:15;29,5
2016-07-13 09:30;21,6
2016-07-13 09:45;33,35
2016-07-13 10:00;32,05
2016-07-13 10:15;36,05
2016-07-13 10:30;42,45
2016-07-13 10:45;43,2
2016-07-13 11:00;51,65
2016-07-13 11:15;52,35
2016-07-13 11:30;53,7
2016-07-13 11:45;48,05
2016-07-13 12:00;53,7
2016-07-13 12:15;53,1
2016-07-13 12:30;57,15
2016-07-13 12:45;54,55
2016-07-13 13:00;50,15
2016-07-13 13:15;55,1
2016-07-13 13:30;54,05
2016-07-13 13:45;44,85
2016-07-13 14:00;54,4
2016-07-13 14:15;47
2016-07-13 14:30;42
2016-07-13 14:45;50,7
2016-07-13 15:00;52,6
2016-07-13 15:15;54
2016-07-13 15:30;54
2016-07-13 15:45;51,1
2016-07-13 16:00;42,35
2016-07-13 16:15;46,55
2016-07-13 16:30;41,5
2016-07-13 16:45;40,2
2016-07-13 17:00;42,4
2016-07-13 17:15;33,7
2016-07-13 17:30;37,1
2016-07-13 17:45;31,2
2016-07-13 18:00;28
2016-07-13 18:15;35,15
2016-07-13 18:30;27,1
2016-07-13 18:45;22,65
2016-07-13 19:00;19,05
2016-07-13 19:15;15,95
2016-07-13 19:30;19,15
2016-07-13 19:45;18,25
2016-07-13 20:00;11,1
2016-07-13 20:15;6,4
2016-07-13 20:30;1,3
2016-07-13 20:45;2,75
2016-07-13 21:00;3,65
2016-07-13 21:15;2,35
2016-07-13 21:30;2,85
2016-07-13 21:45;2,25
2016-07-13 22:00;2,05
2016-07-13 22:15;3,5
2016-07-13 22:30;2,4
2016-07-13 22:45;3,1
2016-07-13 23:00;5,25
2016-07-13 23:15;6,25
2016-07-13 23:30;1,45
2016-07-13 23:45;2,35
2016-07-14 00:00;0,1
2016-07-14 00:15;0
2016-07-14 00:30;0
2016-07-14 00:45;0
2016-07-14 01:00;0,05
2016-07-14 01:15;0,2
2016-07-14 01:30;0
2016-07-14 01:45;0
2016-07-14 02:00;0
2016-07-14 02:15;0
2016-07-14 02:30;0
2016-07-14 02:45;0,25
2016-07-14 03:00;0
2016-07-14 03:15;0
2016-07-14 03:30;0
2016-07-14 03:45;0
2016-07-14 04:00;0,4
2016-07-14 04:15;1,8
2016-07-14 04:30;2,1
2016-07-14 04:45;1,6
2016-07-14 05:00;0,9
2016-07-14 05:15;0,3
2016-07-14 05:30;0,6
2016-07-14 05:45;0
2016-07-14 06:00;4,25
2016-07-14 06:15;3,05
2016-07-14 06:30;16,35
2016-07-14 06:45;12,25
2016-07-14 07:00;13,9
2016-07-14 07:15;15,95
2016-07-14 07:30;15,5
2016-07-14 07:45;29,7
2016-07-14 08:00;31,3
2016-07-14 08:15;17,45
2016-07-14 08:30;26,95
2016-07-14 08:45;23,05
2016-07-14 09:00;30,95
2016-07-14 09:15;22,65
2016-07-14 09:30;30,4
2016-07-14 09:45;39,75
2016-07-14 10:00;33,55
2016-07-14 10:15;38,15
2016-07-14 10:30;37,75
2016-07-14 10:45;34,4
2016-07-14 11:00;39,45
2016-07-14 11:15;48,3
2016-07-14 11:30;44,55
2016-07-14 11:45;54,8
2016-07-14 12:00;47,2
2016-07-14 12:15;53,85
2016-07-14 12:30;52,3
2016-07-14 12:45;41,35
2016-07-14 13:00;54
2016-07-14 13:15;43,45
2016-07-14 13:30;53,25
2016-07-14 13:45;53,2
2016-07-14 14:00;47,5
2016-07-14 14:15;50,7
2016-07-14 14:30;44,05
2016-07-14 14:45;44,7
2016-07-14 15:00;43,2
2016-07-14 15:15;36,65
2016-07-14 15:30;41
2016-07-14 15:45;37,25
2016-07-14 16:00;30,35
2016-07-14 16:15;37,2
2016-07-14 16:30;39,6
2016-07-14 16:45;43,1
2016-07-14 17:00;42,1
2016-07-14 17:15;26,65
2016-07-14 17:30;24,25
2016-07-14 17:45;27,2
2016-07-14 18:00;23,55
2016-07-14 18:15;28,35
2016-07-14 18:30;21,25
2016-07-14 18:45;17,05
2016-07-14 19:00;19,6
2016-07-14 19:15;13,95
2016-07-14 19:30;10,9
2016-07-14 19:45;9,8
2016-07-14 20:00;13,3
2016-07-14 20:15;12,35
2016-07-14 20:30;9,75
2016-07-14 20:45;11,85
2016-07-14 21:00;9,3
2016-07-14 21:15;8,7
2016-07-14 21:30;9,3
2016-07-14 21:45;10,35
2016-07-14 22:00;10,75
2016-07-14 22:15;12,2
2016-07-14 22:30;12,75
2016-07-14 22:45;15,6
2016-07-14 23:00;18
2016-07-14 23:15;17,3
2016-07-14 23:30;17,2
2016-07-14 23:45;16,65
2016-07-15 00:00;2,6
2016-07-15 00:15;1,3
2016-07-15 00:30;0,4
2016-07-15 00:45;0,1
2016-07-15 01:00;0,6
2016-07-15 01:15;0,9
2016-07-15 01:30;2,05
2016-07-15 01:45;2,55
2016-07-15 02:00;3,4
2016-07-15 02:15;4,8
2016-07-15 02:30;8,8
2016-07-15 02:45;10,05
2016-07-15 03:00;4,85
2016-07-15 03:15;5,65
2016-07-15 03:30;4,3
2016-07-15 03:45;5,8
2016-07-15 04:00;3,8
2016-07-15 04:15;5,45
2016-07-15 04:30;4,3
2016-07-15 04:45;2,2
2016-07-15 05:00;3,05
2016-07-15 05:15;2,1
2016-07-15 05:30;5,45
2016-07-15 05:45;5,6
2016-07-15 06:00;6,35
2016-07-15 06:15;14,5
2016-07-15 06:30;9,2
2016-07-15 06:45;14,7
2016-07-15 07:00;16,15
2016-07-15 07:15;27,7
2016-07-15 07:30;23
2016-07-15 07:45;37
2016-07-15 08:00;35,3
2016-07-15 08:15;31,9
2016-07-15 08:30;27,75
2016-07-15 08:45;23,95
2016-07-15 09:00;31,9
2016-07-15 09:15;36
2016-07-15 09:30;36,1
2016-07-15 09:45;39,8
2016-07-15 10:00;48
2016-07-15 10:15;42,85
2016-07-15 10:30;44,55
2016-07-15 10:45;46,8
2016-07-15 11:00;48,25
2016-07-15 11:15;46,7
2016-07-15 11:30;28,95
2016-07-15 11:45;54,7
2016-07-15 12:00;52,65
2016-07-15 12:15;50,15
2016-07-15 12:30;50,7
2016-07-15 12:45;48,2
2016-07-15 13:00;52,9
2016-07-15 13:15;50,4
2016-07-15 13:30;57,65
2016-07-15 13:45;52,1
2016-07-15 14:00;53,8
2016-07-15 14:15;53,5
2016-07-15 14:30;56,9
2016-07-15 14:45;55,35
2016-07-15 15:00;48,9
2016-07-15 15:15;45,15
2016-07-15 15:30;44,95
2016-07-15 15:45;39,15
2016-07-15 16:00;37,05
2016-07-15 16:15;38,25
2016-07-15 16:30;29,45
2016-07-15 16:45;30,2
2016-07-15 17:00;29,3
2016-07-15 17:15;21,1
2016-07-15 17:30;28,55
2016-07-15 17:45;25,05
2016-07-15 18:00;19,7
2016-07-15 18:15;26,75
2016-07-15 18:30;18,15
2016-07-15 18:45;17,15
2016-07-15 19:00;18,45
2016-07-15 19:15;13,1
2016-07-15 19:30;10,7
2016-07-15 19:45;10,25
2016-07-15 20:00;11,5
2016-07-15 20:15;12,4
2016-07-15 20:30;10,35
2016-07-15 20:45;12,5
2016-07-15 21:00;10,45
2016-07-15 21:15;10,55
2016-07-15 21:30;10,75
2016-07-15 21:45;12,2
2016-07-15 22:00;11,55
2016-07-15 22:15;13,65
2016-07-15 22:30;12,5
2016-07-15 22:45;9,15
2016-07-15 23:00;13
2016-07-15 23:15;12,7
2016-07-15 23:30;12,35
2016-07-15 23:45;11,3
2016-07-16 00:00;6,05
2016-07-16 00:15;4,45
2016-07-16 00:30;6,95
2016-07-16 00:45;5,45
2016-07-16 01:00;0,35
2016-07-16 01:15;0
2016-07-16 01:30;0
2016-07-16 01:45;0
2016-07-16 02:00;0,35
2016-07-16 02:15;0
2016-07-16 02:30;0,05
2016-07-16 02:45;0,6
2016-07-16 03:00;0
2016-07-16 03:15;0,1
2016-07-16 03:30;0
2016-07-16 03:45;0,05
2016-07-16 04:00;0,65
2016-07-16 04:15;0,75
2016-07-16 04:30;1,55
2016-07-16 04:45;1,05
2016-07-16 05:00;0,7
2016-07-16 05:15;1,85
2016-07-16 05:30;1,9
2016-07-16 05:45;0,7
2016-07-16 06:00;0,65
2016-07-16 06:15;0,3
2016-07-16 06:30;1,25
2016-07-16 06:45;1,75
2016-07-16 07:00;2,35
2016-07-16 07:15;4,1
2016-07-16 07:30;3,35
2016-07-16 07:45;2,45
2016-07-16 08:00;10
2016-07-16 08:15;6,55
2016-07-16 08:30;4,75
2016-07-16 08:45;5,2
2016-07-16 09:00;4,15
2016-07-16 09:15;2,35
2016-07-16 09:30;1,4
2016-07-16 09:45;1,7
2016-07-16 10:00;5,05
2016-07-16 10:15;5,2
2016-07-16 10:30;3,75
2016-07-16 10:45;1,45
2016-07-16 11:00;0,65
2016-07-16 11:15;0,85
2016-07-16 11:30;1,95
2016-07-16 11:45;1,1
2016-07-16 12:00;0,5
2016-07-16 12:15;1
2016-07-16 12:30;0,2
2016-07-16 12:45;0,6
2016-07-16 13:00;0,15
2016-07-16 13:15;0
2016-07-16 13:30;0,35
2016-07-16 13:45;0,65
2016-07-16 14:00;0,25
2016-07-16 14:15;0
2016-07-16 14:30;0,05
2016-07-16 14:45;0,65
2016-07-16 15:00;0,85
2016-07-16 15:15;0,95
2016-07-16 15:30;1,45
2016-07-16 15:45;0,75
2016-07-16 16:00;0,4
2016-07-16 16:15;0
2016-07-16 16:30;0,25
2016-07-16 16:45;0,05
2016-07-16 17:00;0,2
2016-07-16 17:15;0
2016-07-16 17:30;0,15
2016-07-16 17:45;0,3
2016-07-16 18:00;0
2016-07-16 18:15;0,65
2016-07-16 18:30;0,05
2016-07-16 18:45;0
2016-07-16 19:00;0,95
2016-07-16 19:15;0
2016-07-16 19:30;0,2
2016-07-16 19:45;0,2
2016-07-16 20:00;0
2016-07-16 20:15;0,05
2016-07-16 20:30;0,6
2016-07-16 20:45;2,35
2016-07-16 21:00;0,9
2016-07-16 21:15;0,1
2016-07-16 21:30;0
2016-07-16 21:45;0,2
2016-07-16 22:00;0
2016-07-16 22:15;0,25
2016-07-16 22:30;5,95
2016-07-16 22:45;8
2016-07-16 23:00;8,9
2016-07-16 23:15;8
2016-07-16 23:30;6,55
2016-07-16 23:45;9,7
2016-07-17 00:00;3,7
2016-07-17 00:15;4,3
2016-07-17 00:30;4,05
2016-07-17 00:45;0,45
2016-07-17 01:00;0
2016-07-17 01:15;0
2016-07-17 01:30;0
2016-07-17 01:45;0,05
2016-07-17 02:00;0
2016-07-17 02:15;0
2016-07-17 02:30;0
2016-07-17 02:45;0
2016-07-17 03:00;0
2016-07-17 03:15;0
2016-07-17 03:30;0
2016-07-17 03:45;0
2016-07-17 04:00;0
2016-07-17 04:15;0
2016-07-17 04:30;0,2
2016-07-17 04:45;0
2016-07-17 05:00;0
2016-07-17 05:15;2,25
2016-07-17 05:30;4,05
2016-07-17 05:45;6,7
2016-07-17 06:00;2,85
2016-07-17 06:15;5,85
2016-07-17 06:30;5
2016-07-17 06:45;6,5
2016-07-17 07:00;5,65
2016-07-17 07:15;7,7
2016-07-17 07:30;4,95
2016-07-17 07:45;4,5
2016-07-17 08:00;8
2016-07-17 08:15;3,05
2016-07-17 08:30;0,35
2016-07-17 08:45;0,15
2016-07-17 09:00;0,05
2016-07-17 09:15;0
2016-07-17 09:30;0
2016-07-17 09:45;0
2016-07-17 10:00;0,05
2016-07-17 10:15;0
2016-07-17 10:30;0
2016-07-17 10:45;0,55
2016-07-17 11:00;0,4
2016-07-17 11:15;0,15
2016-07-17 11:30;0,05
2016-07-17 11:45;0
2016-07-17 12:00;0
2016-07-17 12:15;0
2016-07-17 12:30;0,2
2016-07-17 12:45;0
2016-07-17 13:00;0
2016-07-17 13:15;0
2016-07-17 13:30;0
2016-07-17 13:45;0
2016-07-17 14:00;0,1
2016-07-17 14:15;0
2016-07-17 14:30;0
2016-07-17 14:45;0
2016-07-17 15:00;0
2016-07-17 15:15;0,15
2016-07-17 15:30;0
2016-07-17 15:45;0
2016-07-17 16:00;0
2016-07-17 16:15;0
2016-07-17 16:30;0,25
2016-07-17 16:45;0,05
2016-07-17 17:00;0
2016-07-17 17:15;0
2016-07-17 17:30;0,5
2016-07-17 17:45;1,8
2016-07-17 18:00;1
2016-07-17 18:15;4,15
2016-07-17 18:30;1,5
2016-07-17 18:45;3,15
2016-07-17 19:00;3,5
2016-07-17 19:15;2,55
2016-07-17 19:30;1,45
2016-07-17 19:45;1,55
2016-07-17 20:00;2,9
2016-07-17 20:15;2,1
2016-07-17 20:30;2,95
2016-07-17 20:45;14,95
2016-07-17 21:00;14,6
2016-07-17 21:15;9,6
2016-07-17 21:30;7,25
2016-07-17 21:45;8,35
2016-07-17 22:00;7,3
2016-07-17 22:15;12,05
2016-07-17 22:30;11,1
2016-07-17 22:45;13,35
2016-07-17 23:00;17,05
2016-07-17 23:15;11,65
2016-07-17 23:30;9,65
2016-07-17 23:45;11,15

